| time (UTC) | temp C | wind direction | speed KPH | gust KPH | rain 1hr cm | rain 24hr cm | rain mn cm | humidity % | barometer mb |
| 20260502123016 | 12 | 45 | 9.7 | 14.5 | 0.00 | 0.56 | 0.56 | 83 | 1021.0 |
| 20260502122016 | 12 | 68 | 6.4 | 14.5 | 0.00 | 0.56 | 0.56 | 82 | 1021.2 |
| 20260502121016 | 12 | 23 | 9.7 | 14.5 | 0.00 | 0.56 | 0.56 | 81 | 1021.2 |
| 20260502115016 | 12 | 23 | 9.7 | 19.3 | 0.00 | 0.56 | 0.56 | 80 | 1021.1 |
| 20260502114016 | 12 | 23 | 6.4 | 9.7 | 0.00 | 0.56 | 0.56 | 79 | 1021.3 |
| 20260502113016 | 12 | 315 | 4.8 | 11.3 | 0.00 | 0.56 | 0.56 | 76 | 1021.6 |
| 20260502112016 | 12 | 270 | 4.8 | 12.9 | 0.00 | 0.56 | 0.56 | 75 | 1021.5 |
| 20260502111016 | 12 | 0.0 | 0.0 | 0.00 | 0.56 | 0.56 | 89 | 1021.6 | |
| 20260502110016 | 12 | 0.0 | 0.0 | 0.00 | 0.56 | 0.56 | 90 | 1021.9 | |
| 20260502105036 | 12 | 315 | 1.6 | 3.2 | 0.00 | 0.56 | 0.56 | 90 | 1021.9 |
| 20260502104016 | 11 | 315 | 1.6 | 4.8 | 0.00 | 0.56 | 0.56 | 90 | 1022.0 |
| 20260502103016 | 11 | 180 | 1.6 | 4.8 | 0.03 | 0.56 | 0.56 | 91 | 1022.0 |
| 20260502102016 | 11 | 158 | 1.6 | 4.8 | 0.05 | 0.56 | 0.56 | 91 | 1022.0 |
| 20260502101016 | 11 | 180 | 3.2 | 4.8 | 0.08 | 0.56 | 0.56 | 91 | 1022.0 |
| 20260502091016 | 11 | 158 | 3.2 | 4.8 | 0.08 | 0.48 | 0.48 | 91 | 1022.3 |
| 20260502071015 | 11 | 248 | 3.2 | 6.4 | 0.05 | 0.05 | 0.05 | 87 | 1022.1 |
| 20260502070015 | 11 | 158 | 3.2 | 6.4 | 0.05 | 0.05 | 0.05 | 85 | 1022.1 |
| 20260502065015 | 12 | 68 | 1.6 | 4.8 | 0.05 | 0.05 | 0.05 | 84 | 1022.2 |
| 20260502064016 | 12 | 45 | 4.8 | 8.0 | 0.05 | 0.05 | 0.05 | 81 | 1022.1 |
| 20260502063716 | 12 | 90 | 3.2 | 9.7 | 0.03 | 0.03 | 0.03 | 77 | 1022.2 |
| 20260502011027 | 12 | 23 | 9.7 | 14.5 | 0.00 | 0.00 | 0.00 | 79 | 1022.8 |
| 20260502010026 | 12 | 45 | 6.4 | 11.3 | 0.00 | 0.00 | 0.00 | 79 | 1022.8 |
| 20260502005026 | 12 | 45 | 6.4 | 11.3 | 0.00 | 0.00 | 0.00 | 79 | 1023.0 |
| 20260502004026 | 12 | 90 | 3.2 | 8.0 | 0.00 | 0.00 | 0.00 | 78 | 1023.1 |
| 20260502003026 | 12 | 90 | 1.6 | 3.2 | 0.00 | 0.00 | 0.00 | 77 | 1023.4 |
| 20260502002026 | 12 | 0.0 | 3.2 | 0.00 | 0.00 | 0.00 | 76 | 1023.5 | |
| 20260502001026 | 12 | 248 | 3.2 | 6.4 | 0.00 | 0.00 | 0.00 | 75 | 1023.6 |
| 20260502000026 | 12 | 248 | 1.6 | 4.8 | 0.00 | 0.00 | 0.00 | 76 | 1023.6 |
| 20260501235026 | 12 | 180 | 1.6 | 4.8 | 0.00 | 0.00 | 0.00 | 75 | 1023.6 |
| 20260501234026 | 12 | 0.0 | 3.2 | 0.00 | 0.00 | 0.00 | 76 | 1023.6 | |
| 20260501233026 | 12 | 180 | 1.6 | 3.2 | 0.00 | 0.00 | 0.00 | 73 | 1023.8 |
| 20260501232026 | 12 | 0.0 | 3.2 | 0.00 | 0.00 | 0.00 | 75 | 1023.8 | |
| 20260501231026 | 12 | 90 | 1.6 | 3.2 | 0.00 | 0.00 | 0.00 | 74 | 1023.7 |
| 20260501230026 | 12 | 68 | 3.2 | 6.4 | 0.00 | 0.00 | 0.00 | 72 | 1023.5 |
| 20260501225026 | 13 | 0 | 1.6 | 6.4 | 0.00 | 0.00 | 0.00 | 69 | 1023.4 |
| 20260501224026 | 13 | 0.0 | 3.2 | 0.00 | 0.00 | 0.00 | 70 | 1023.3 | |
| 20260501223046 | 13 | 0.0 | 3.2 | 0.00 | 0.00 | 0.00 | 70 | 1023.3 | |
| 20260501222026 | 13 | 203 | 1.6 | 4.8 | 0.00 | 0.00 | 0.00 | 69 | 1023.3 |
| 20260501221046 | 13 | 180 | 4.8 | 9.7 | 0.00 | 0.00 | 0.00 | 69 | 1023.3 |
| 20260501220046 | 13 | 248 | 6.4 | 11.3 | 0.00 | 0.00 | 0.00 | 69 | 1023.2 |
| 20260501215026 | 13 | 248 | 6.4 | 11.3 | 0.00 | 0.00 | 0.00 | 68 | 1023.2 |
| 20260501214026 | 13 | 248 | 8.0 | 14.5 | 0.00 | 0.00 | 0.00 | 68 | 1023.3 |
| 20260501213026 | 13 | 248 | 8.0 | 11.3 | 0.00 | 0.00 | 0.00 | 68 | 1023.1 |
| 20260501212026 | 14 | 315 | 4.8 | 9.7 | 0.00 | 0.00 | 0.00 | 67 | 1023.2 |
| 20260501211026 | 14 | 293 | 3.2 | 4.8 | 0.00 | 0.00 | 0.00 | 67 | 1023.2 |
| 20260501210026 | 14 | 248 | 3.2 | 6.4 | 0.00 | 0.00 | 0.00 | 67 | 1023.2 |
| 20260501205026 | 14 | 248 | 1.6 | 8.0 | 0.00 | 0.00 | 0.00 | 66 | 1023.3 |
| 20260501204026 | 14 | 315 | 3.2 | 6.4 | 0.00 | 0.00 | 0.00 | 66 | 1023.2 |
| 20260501203026 | 15 | 315 | 3.2 | 4.8 | 0.00 | 0.00 | 0.00 | 66 | 1022.8 |
| 20260501202026 | 15 | 338 | 3.2 | 6.4 | 0.00 | 0.00 | 0.00 | 66 | 1022.9 |
| 20260501201026 | 15 | 293 | 3.2 | 6.4 | 0.00 | 0.00 | 0.00 | 65 | 1022.9 |
| 20260501200026 | 15 | 315 | 4.8 | 9.7 | 0.00 | 0.00 | 0.00 | 65 | 1022.7 |
| 20260501195026 | 15 | 315 | 4.8 | 8.0 | 0.00 | 0.00 | 0.00 | 65 | 1022.6 |
| 20260501194025 | 15 | 315 | 4.8 | 8.0 | 0.00 | 0.00 | 0.00 | 65 | 1022.5 |
| 20260501193026 | 15 | 270 | 4.8 | 6.4 | 0.00 | 0.00 | 0.00 | 63 | 1022.4 |
| 20260501192046 | 15 | 270 | 4.8 | 8.0 | 0.00 | 0.00 | 0.00 | 63 | 1022.3 |
| 20260501191025 | 16 | 270 | 4.8 | 9.7 | 0.00 | 0.00 | 0.00 | 63 | 1022.1 |
| 20260501190026 | 16 | 248 | 3.2 | 6.4 | 0.00 | 0.00 | 0.00 | 63 | 1021.8 |
| 20260501185025 | 16 | 248 | 3.2 | 6.4 | 0.00 | 0.00 | 0.00 | 63 | 1021.9 |
| 20260501184106 | 16 | 203 | 4.8 | 11.3 | 0.00 | 0.00 | 0.00 | 61 | 1021.8 |
| 20260501183025 | 16 | 248 | 4.8 | 9.7 | 0.00 | 0.08 | 0.00 | 59 | 1021.4 |
| 20260501182026 | 16 | 248 | 4.8 | 9.7 | 0.00 | 0.28 | 0.00 | 60 | 1021.3 |
| 20260501181038 | 17 | 203 | 4.8 | 9.7 | 0.00 | 0.28 | 0.00 | 60 | 1021.3 |
| 20260501180025 | 17 | 203 | 4.8 | 8.0 | 0.00 | 0.28 | 0.00 | 59 | 1021.3 |
| 20260501175025 | 17 | 203 | 4.8 | 12.9 | 0.00 | 0.28 | 0.00 | 60 | 1021.1 |
| 20260501174025 | 17 | 203 | 4.8 | 9.7 | 0.00 | 0.28 | 0.00 | 57 | 1021.2 |
| 20260501173025 | 17 | 248 | 6.4 | 11.3 | 0.00 | 0.28 | 0.00 | 58 | 1021.0 |
| 20260501172025 | 17 | 270 | 4.8 | 9.7 | 0.00 | 0.28 | 0.00 | 58 | 1021.1 |
| 20260501171025 | 17 | 203 | 3.2 | 9.7 | 0.00 | 0.28 | 0.00 | 58 | 1021.1 |
| 20260501170025 | 17 | 180 | 4.8 | 11.3 | 0.00 | 0.28 | 0.00 | 59 | 1021.0 |
| 20260501165025 | 17 | 180 | 6.4 | 11.3 | 0.00 | 0.28 | 0.00 | 59 | 1021.0 |
| 20260501164045 | 17 | 180 | 6.4 | 14.5 | 0.00 | 0.28 | 0.00 | 59 | 1020.9 |
| 20260501163025 | 18 | 158 | 6.4 | 12.9 | 0.00 | 0.28 | 0.00 | 58 | 1020.8 |
| 20260501162025 | 18 | 158 | 8.0 | 17.7 | 0.00 | 0.28 | 0.00 | 58 | 1020.8 |
| 20260501161025 | 18 | 135 | 6.4 | 16.1 | 0.00 | 0.28 | 0.00 | 56 | 1020.8 |
| 20260501160025 | 18 | 113 | 4.8 | 9.7 | 0.00 | 0.28 | 0.00 | 56 | 1020.8 |
| 20260501155025 | 18 | 90 | 6.4 | 17.7 | 0.00 | 0.28 | 0.00 | 56 | 1021.0 |
| 20260501154025 | 19 | 135 | 4.8 | 11.3 | 0.00 | 0.28 | 0.00 | 56 | 1021.0 |
| 20260501153025 | 18 | 158 | 3.2 | 12.9 | 0.00 | 0.28 | 0.00 | 56 | 1021.0 |
| 20260501152025 | 18 | 113 | 6.4 | 14.5 | 0.00 | 0.28 | 0.00 | 56 | 1020.9 |
| 20260501151025 | 18 | 135 | 9.7 | 17.7 | 0.00 | 0.28 | 0.00 | 58 | 1020.9 |
| 20260501150025 | 18 | 158 | 9.7 | 19.3 | 0.00 | 0.28 | 0.00 | 59 | 1020.7 |
| 20260501145025 | 18 | 180 | 8.0 | 16.1 | 0.00 | 0.28 | 0.00 | 60 | 1020.9 |
| 20260501144025 | 18 | 158 | 8.0 | 16.1 | 0.00 | 0.28 | 0.00 | 59 | 1021.0 |
| 20260501143025 | 18 | 158 | 9.7 | 16.1 | 0.00 | 0.28 | 0.00 | 59 | 1021.0 |